Ma 2014. április 25., péntek, Márk napja van.
cheap cialis

Hírek

Köszönetnyilvánítás

Köszönjük a Kőrös-KerTÉSZ Zrt. segítségét, amellyel a - Szabolcs és Gyuri számára szervezett- repülős rendezvényt támogatta.

 

Szabi blog-bejegyzése a repülésről

Részlet Szabi blogjából...

Mindenek előtt szeretnék köszönetet mondani a felajánló Vári Gyulának és csapatának hogy lehetővé tették a nem átlagos repülést, és Balázséknak a Morningshow-ban hogy összehozta a szereplőket, és nélkülük nem jöhetett volna létre az élmény-repülés. Bővebben...

 

Gyuri születésnapi meglepetése...

Nézd meg képes beszámolóinkat a híreinkben bemutatott Gyuri születésnapi meglepetéséről itt.

 

   

Gyuri rövid története...

SEGÍTS, hogy az álom valóra válhasson!

Budakeszin él egy 23 éves egyetemista fiú, aki egy súlyos betegség következtében egyik napról a másikra elvesztette végtagjait. Álma, hogy az egyetem befejezése után mérnök informatikus legyen, a rehabilitáció sikerességén múlik, és ez csak az elvesztett végtagok m?vi pótlásával lehetséges. B?vebben...

cheap iagra 100mg - viagra

 

Hungarocontrol - Napi légtérhasználati terv

 

 

A Légtérfelhasználási terv (az aktuális terv itt megtekinthető) az adott nap 06.00 UTC-től a következő nap 06.00 UTC-ig 24 órás periódusban tartalmazza az Időszakosan korlátozott légterek (Temporary Restricted Areas – TRAs), a Veszélyes légterek (Danger Areas – DAs) és az Eseti légterek adatait, valamint a Feltételes útvonalak (Conditional Routes – CDRs) nyitvatartását.

Kapcsolat:
Telefon: 06-1-296-9258
HM 22/50-53
Fax: 06-1-296-9117
HM 22/50-24

   

1. oldal / 2

Események

Last month April 2014 Next month
M T W T F S S
week 14 1 2 3 4 5 6
week 15 7 8 9 10 11 12 13
week 16 14 15 16 17 18 19 20
week 17 21 22 23 24 25 26 27
week 18 28 29 30

Szavazás

Szeretnéd kipróbálni a műrepülést?

Igen - 100%
Nem - 0%

Total votes: 18
The voting for this poll has ended

Következik

Látogatói statisztika



54.2%Hungary Hungary
20.3%United States United States
3.4%Brazil Brazil
2.5%Russian Federation Russian Federation
2.2%Romania Romania
2.2%Germany Germany
2.2%Italy Italy
1.5%Ukraine Ukraine
1.2%Kuwait Kuwait
0.9%Austria Austria

Tegnap: 5
A héten: 15
Múlt héten: 33
Ebben a hónapban: 115
Múlt hónapban: 177
Összesen: 418


Arcképcsarnok

WindFinder


forrás:windfinder.com

Elérhetőségeink

 
        
                           
 
Telefon:  +3620 777-9000
 
Email:        varigyula@varigyula.hu 
            
            
        
 

Aviation WX

[source: ADDS]
METAR
TAF LHKE 250445Z 2506/2515 10003MPS 9999 BKN040 OVC080 TEMPO 2506/2513 1500 RA SHRA BR BKN004 OVC030 BECMG 2508/2511 15003MPS TAF
TAF LHKE 250445Z 2506/2515 10003MPS 9999 BKN040 OVC080 TEMPO 2506/2513 1500 RA SHRA BR BKN004 OVC030 BECMG 2508/2511 15003MPS =